Regional Weather Roundup
Issued by NWS

Home | Current Version | Previous Version | Text Only | Print | Product List | Glossary Off
Versions: 1 2 3 4 5 6 7 8 9 10 11 12 13 14 15 16 17 18 19 20 21 22 23 24 25 26 27 28 29 30 31 32 33 34 35 36 37 38 39 40 41 42 43 44 45 46 47 48 49 50

483
ASUS43 KLOT 262009
RWRIL

ILLINOIS REGIONAL WEATHER ROUNDUP
NATIONAL WEATHER SERVICE CHICAGO/ROMEOVILLE IL
300 PM CDT WED JUL 26 2017

NOTE: "FAIR" INDICATES FEW OR NO CLOUDS BELOW 12,000 FEET WITH NO
SIGNIFICANT WEATHER AND/OR OBSTRUCTIONS TO VISIBILITY.

* THESE STATIONS ARE NOT UNDER NWS QUALITY CONTROL. THEY ALSO MAY NOT
  REPORT WEATHER SUCH AS PRECIPITATION OR FOG.

ILZ001-002-007-009-015-016-024-262100-
NORTHWEST ILLINOIS

CITY           SKY/WX    TMP DP  RH WIND       PRES   REMARKS
MOLINE         CLOUDY    85  75  72 S5        29.98F HX  93
STERLING*      CLOUDY    80  76  87 CALM      30.01F HX  86
SAVANNA*       CLOUDY    81  75  82 SE8       30.00F HX  86
$$

ILZ003-004-008-010-011-017-018-262100-
NORTH CENTRAL ILLINOIS

CITY           SKY/WX    TMP DP  RH WIND       PRES   REMARKS
ROCKFORD       CLOUDY    83  74  74 S7        30.02F HX  89
FREEPORT*      CLOUDY    79  73  83 SW5       30.04S HX  82
ROCHELLE*      CLOUDY    80  75  84 SW5       30.03F HX  85
DE KALB*       CLOUDY    80  74  82 S8        30.04S HX  85
PERU*          PTSUNNY   82  73  75 S5        30.02F HX  87
$$

ILZ005-006-012>014-019>023-262100-
NORTHEAST ILLINOIS

CITY           SKY/WX    TMP DP  RH WIND       PRES   REMARKS
CHICAGO-OHARE  CLOUDY    85  69  58 SW7       30.01F HX  89
CHICAGO-MIDWAY CLOUDY    85  70  60 SW9       30.01F HX  89
AURORA         PTSUNNY   82  73  74 S8        30.03F HX  87
LANSING*       CLOUDY    83  69  62 S9        30.03F HX  86
JOLIET*        CLOUDY    83  73  72 SW3       30.02F HX  89
WAUKEGAN       PTSUNNY   80  72  76 E8        30.01F HX  84
DUPAGE AIRPORT CLOUDY    83  73  72 SW8       30.02F HX  89
KANKAKEE*      CLOUDY    82  72  71 S3        30.04F HX  87
WHEELING       CLOUDY    84  71  65 S7        30.03F HX  89
MORRIS*        CLOUDY    81  74  79 S5        30.01F HX  86
ROMEOVILLE*    CLOUDY    82  70  65 SW6       30.03F HX  86
NORTHERLY ISL    N/A     84  65  52 SE5         N/A  HX  86
$$

LMZ740>746-262100-
SOUTHERN LAKE MICHIGAN

STATION/POSITION SKY/WX   TEMP    WIND        PRES    VSBY  WAVE
                          AIR SEA DIR/SP/G                  HT/PER
                          (F)     (DEG/KT/KT) (MB)    (MI)  (FT/S)
SOUTHERN BUOY              72 71  150/  8/ 10 1017.4          2/ 5
WILMETTE HARBOR            74 72  130/  8/ 10   N/A           1/ 2
HARRISON CRIB              80     140/ 13/ 14   N/A
BURNHAM HARBOR             84                   N/A
CALUMET HARBOR             82     210/  6/ 12 1016.2F
BURNS HARBOR               82     220/  5/ 12 1017.3F
MICHIGAN CITY              80     210/  5/  7   N/A
MICHIGAN CITY 6N           79 76   40/  2/  4   N/A           0
ST. JOSEPH                 79 76  310/  2/  4 1016.9          1
$$

ILZ025>027-034>036-040-047-049-050-058-095>099-262100-
WEST-CENTRAL ILLINOIS

CITY           SKY/WX    TMP DP  RH WIND       PRES   REMARKS
QUINCY         CLOUDY    89  74  60 S7        29.99F HX  98
GALESBURG*     CLOUDY    86  76  70 SW6       30.01F HX  96
MACOMB*        CLOUDY    87  76  69 CALM      30.02F HX  97
JACKSONVILLE*  MOSUNNY   90  77  65 SW7       30.00F HX 102
PITTSFIELD*    CLOUDY    88  76  67 W5        30.01F HX  99
$$

ILZ028>032-037-038-041>044-048-051>054-059>061-262100-
CENTRAL ILLINOIS

CITY           SKY/WX    TMP DP  RH WIND       PRES   REMARKS
PONTIAC        CLOUDY    84  77  80 SE5       30.03F HX  94
BLOOMINGTON    PTSUNNY   86  74  67 SW5       30.04F HX  94
DECATUR        CLOUDY    88  75  65 S7        30.01F HX  97
PEORIA         CLOUDY    85  77  77 S6        30.01F HX  95
LACON*         CLOUDY    85  76  76 SW5       30.00F HX  94
LINCOLN*       CLOUDY    88  78  72 S5        30.01S HX 101
SPRINGFIELD    CLOUDY    90  77  65 SW7       30.01F HX 103
TAYLORVILLE    CLOUDY    89  77  68 SW6       30.00F HX 101
$$

ILZ033-039-045-046-055>057-062-063-262100-
EAST-CENTRAL ILLINOIS

CITY           SKY/WX    TMP DP  RH WIND       PRES   REMARKS
CHAMPAIGN      PTSUNNY   87  75  67 SE7       30.02F HX  96
RANTOUL*       CLOUDY    86  74  67 SE6       30.03F HX  95
MATTOON        PTSUNNY   87  78  74 SE7       30.01F HX 100
PARIS*         MOSUNNY   85  76  74 SE6       30.04F HX  95
$$

ILZ079-100>102-262100-
SOUTHWEST ILLINOIS

CITY           SKY/WX    TMP DP  RH WIND       PRES   REMARKS
ALTON          PTSUNNY   90  77  66 W6        30.01F HX 102
BELLEVILLE     CLOUDY    92  76  59 N7        29.99F HX 105
CAHOKIA*       CLOUDY    96  72  45 W9        29.98F HX 104
SPARTA*        CLOUDY    80  73  79 NW3       30.01F HX  83
$$

ILZ064>066-069>071-074>076-080>082-084>086-088>090-092>094-262100-
SOUTH-CENTRAL ILLINOIS

CITY           SKY/WX    TMP DP  RH WIND       PRES   REMARKS
CARBONDALE     CLOUDY    90  77  65 SW9       30.00F HX 103
CAIRO*         MOSUNNY   91  78  65 S7        30.02F HX 106
EFFINGHAM*     MOSUNNY   91  76  61 SW6       30.02F HX 103
MARION         PTSUNNY   91  73  55 S14       30.02F HX 100
MT. VERNON     CLOUDY    79  72  79 SW16      30.03R HX  82
CENTRALIA*     CLOUDY    95  73  49 CALM      29.99F HX 105
SALEM*         MOSUNNY   93  76  57 SW3       30.01S HX 104
METROPOLIS*    PTSUNNY   92  77  60 SW9       30.03F HX 106
$$

ILZ067-068-072-073-078-083-087-091-262100-
SOUTHEAST ILLINOIS

CITY           SKY/WX    TMP DP  RH WIND       PRES   REMARKS
LAWRENCEVILLE  PTSUNNY   89  79  72 S6        30.01F HX 104
FLORA*         MOSUNNY   92  77  61 SW8       30.00F HX 107
FAIRFIELD*     CLOUDY    93  77  60 CALM      29.98F HX 107
HARRISBURG*    CLOUDY    92  78  62 SW9       30.01F HX 107
ROBINSON*      CLOUDY    86  77  75 S7        30.02F HX  98
CARMI*         PTSUNNY   86  79  78 W10       30.00S THUNDER HX 100
$$

ABBREVIATIONS USED IN REMARKS
   TC - TEMPERATURE IN CELSIUS
  WCI - WIND CHILL INDEX
   HX - HEAT INDEX
  VSB - VISIBILITY
$$





USA.gov is the U.S. government's official web portal to all federal, state and local government web resources and services.